Location: Hawthorne Hill
(42.7979°N, 73.8801°W)
Time: 05:30:13
(UTC+00:00)

Daily predictions for brighter satellites

Satellite Brightness Start Highest point End
(mag) Time Altitude Azimuth Time Altitude Azimuth Time Altitude Azimuth
SL-16 R/B 2.6 01:03:24 10° S 01:08:42 43° ESE 01:14:01 10° NE
Cosmos 2360 Rocket 3.5 01:06:30 10° SE 01:10:23 19° E 01:14:17 10° NE
Cosmos 2322 Rocket 2.9 01:06:24 10° SSE 01:11:30 35° ESE 01:16:37 10° NE
BREEZE-M DEB (TANK) 2.7 01:11:14 10° SSW 01:13:21 30° SE 01:16:09 10° ENE
Cosmos 1315 Rocket 3.6 01:09:36 10° N 01:13:30 38° ENE 01:17:20 10° SE
SL-24 DEB 4.4 01:10:31 10° S 01:15:15 86° W 01:20:03 10° N
Cosmos 676 Rocket 4.2 01:10:48 10° NNW 01:16:06 62° ENE 01:21:23 10° SSE
Cosmos 1954 Rocket 4.2 01:11:39 10° NNW 01:16:58 64° ENE 01:22:14 10° SSE
Cosmos 2227 4.3 01:11:33 10° NNW 01:17:11 71° ENE 01:22:46 10° SSE
Ariane Rocket 3.2 01:12:55 10° SSE 01:18:00 81° WSW 01:23:08 10° NNW
OBJECT-B 2.9 01:17:14 10° SSW 01:19:58 26° W 01:22:44 10° NW
Meteor 1-21 4.3 01:14:48 10° S 01:20:21 59° E 01:25:53 10° NNE
Aureole 2 Rocket 4.3 01:19:50 10° WNW 01:21:21 15° WSW 01:22:50 10° SW
Okean 1 Rocket 3.2 01:17:51 10° N 01:22:10 57° E 01:26:28 10° SSE
Cosmos 1934 Rocket 4.2 01:16:40 10° N 01:22:46 78° W 01:28:55 10° S
USA 238 DEB 3.8 01:17:33 10° SW 01:24:05 81° NW 01:30:58 10° NE
USA 238 3.8 01:17:40 10° SW 01:24:11 81° NW 01:31:04 10° NE
Resurs 1-3 4.0 01:19:59 10° S 01:24:21 66° W 01:28:43 10° NNW
Cosmos 1726 2.2 01:22:22 10° N 01:25:57 58° E 01:29:32 10° SSE
Cosmos 1980 Rocket 3.9 01:24:34 10° SW 01:29:47 38° WNW 01:35:02 10° N
USA 81 4.5 01:24:54 10° N 01:29:59 46° E 01:35:00 10° SSE
Cosmos 220 Rocket 4.1 01:25:41 10° SSW 01:30:00 83° WNW 01:34:18 10° NNE
Cosmos 1378 Rocket 3.6 01:26:04 10° S 01:30:23 82° W 01:34:48 10° N
BREEZE-M DEB (TANK) 2.6 01:28:49 10° S 01:30:39 20° SE 01:32:51 10° E
Cosmos 1758 3.7 01:28:12 10° N 01:32:03 45° ENE 01:35:36 11° SSE
Cosmos 1140 Rocket 4.4 01:27:03 10° NNW 01:32:05 48° WSW 01:37:05 10° S
Okean 2 3.4 01:29:00 10° S 01:33:06 89° W 01:37:12 10° N
CENTAUR R/B 2.8 01:29:22 10° SW 01:35:10 72° NW 01:42:10 10° NNE
Lacrosse 5 rocket 2.4 01:36:28 10° S 01:39:07 19° SE 01:41:42 10° E
Cosmos 1707 2.7 01:40:04 10° S 01:43:56 81° E 01:47:51 10° N
Cosmos 292 Rocket 3.7 01:39:24 10° SSW 01:44:14 84° ESE 01:49:06 10° NNE
Meteor 2-10 4.4 01:40:14 10° NNW 01:45:12 61° W 01:50:16 10° S
Cosmos 1727 Rocket 4.1 01:41:32 10° S 01:47:47 67° E 01:54:00 10° NNE
Cosmos 1844 Rocket 3.7 01:43:03 10° N 01:48:11 33° NE 01:52:38 13° ESE
NOSS 8 (A) 4.2 01:46:04 10° SSW 01:49:39 68° SE 01:52:38 10° NE
Meteor 2-20 Rocket 4.5 01:44:46 10° S 01:50:48 65° E 01:56:50 10° NNE
Cosmos 1605 Rocket 4.3 01:47:37 10° NNW 01:54:01 72° W 02:00:19 10° S
SPOT 5 3.8 01:50:49 15° SE 01:54:36 37° ENE 01:59:09 10° N
Cosmos 2285 Rocket 4.4 01:51:33 10° SSW 01:57:58 70° WNW 02:04:24 10° NNE
FALCON 9 DEB 3.0 01:55:42 10° SW 01:59:05 61° SE 02:02:28 10° ENE
Cosmos 1953 3.0 01:55:57 10° N 01:59:49 40° ENE 02:02:13 20° SE
Resurs 01 Rocket 2.5 01:56:59 10° S 02:01:13 46° W 02:05:29 10° NNW
Cosmos 2263 Rocket 3.1 01:55:53 10° NW 02:01:16 44° WSW 02:06:38 10° S
Cosmos 1452 Rocket 3.5 01:56:12 10° SSW 02:01:29 86° ESE 02:06:48 10° NNE
Cosmos 1025 Rocket 3.9 02:00:33 19° SE 02:03:01 32° E 02:06:55 10° NNE
CARTOSAT-1 3.7 02:02:17 19° SSE 02:05:16 60° ENE 02:09:33 10° N
Terra 2.9 02:02:47 17° ESE 02:05:43 32° ENE 02:09:55 10° N
USA 245 3.9 02:03:19 16° SSE 02:07:03 89° E 02:12:38 10° NNW
Lacrosse 5 2.1 02:05:20 10° NW 02:10:21 63° SW 02:13:41 21° SSE
In-Cosmos 22 4.1 02:05:51 10° S 02:11:08 85° W 02:16:28 10° N
SPOT 1/Viking Rocket 3.7 02:06:53 14° S 02:11:22 75° WSW 02:16:31 10° NNW
Cosmos 1626 2.8 02:10:37 24° SE 02:12:09 35° E 02:15:33 10° NNE
Cosmos 1850 Rocket 4.0 02:07:57 10° NNW 02:13:17 75° ENE 02:16:49 21° SSE
Cosmos 1975 Rocket 3.0 02:09:40 12° S 02:13:35 83° E 02:18:00 10° N
Cosmos 1461 3.5 02:13:40 10° NNW 02:17:45 46° NE 02:19:59 23° ESE
Cosmos 2333 Rocket 3.0 02:14:47 20° SSE 02:17:46 32° ESE 02:22:46 10° NE
Geosat 4.0 02:15:36 21° SE 02:18:57 78° ENE 02:24:00 10° NNW
Spot 2 Rocket 3.5 02:18:26 19° SSE 02:22:06 85° WSW 02:27:12 10° NNW
Cosmos 1459 Rocket 3.9 02:17:56 10° N 02:24:00 72° E 02:28:08 21° SSE
KORONAS-FOTON 3.8 02:21:34 17° S 02:24:27 81° W 02:28:16 10° N
Cosmos 1331 Rocket 4.0 02:22:28 13° S 02:27:00 66° ESE 02:32:15 10° NNE
ERS-1 Rocket 3.0 02:24:37 23° SSE 02:27:44 74° ENE 02:32:47 10° N
Cosmos 1000 Rocket 4.4 02:24:18 14° S 02:29:45 83° E 02:35:55 10° N
SL-8 R/B 4.1 02:27:12 10° WNW 02:31:57 60° NNE 02:35:46 16° E
Cosmos 2219 Rocket 2.9 02:29:35 24° SSE 02:32:04 35° ESE 02:37:10 10° NE
ATLAS CENTAUR R/B 3.0 02:28:20 10° NNW 02:32:07 28° NE 02:34:48 16° E
Cosmos 1844 3.9 02:27:17 10° NNW 02:32:47 59° ENE 02:35:57 25° SE
ARIANE 5 R/B 2.9 02:36:14 23° S 02:38:53 62° W 02:43:21 10° NNW
Meteor 1-24 Rocket 4.5 02:37:25 25° SE 02:39:19 32° E 02:44:05 10° NNE
Cosmos 2061 Rocket 4.2 02:34:33 10° N 02:40:58 63° E 02:44:36 26° SSE
Meteor 2-11 Rocket 4.4 02:35:44 10° N 02:41:52 88° ENE 02:45:41 24° S
Aureole 1 Rocket 4.1 02:37:22 10° NNW 02:43:19 87° ENE 02:47:54 25° SSE
Cosmos 1674 3.6 02:41:23 14° SSW 02:44:19 43° WNW 02:47:53 10° N
CZ-4B DEB 4.4 02:44:40 49° ESE 02:45:12 58° ENE 02:48:19 10° N
Cosmos 1302 Rocket 4.3 02:43:00 29° SSE 02:45:19 47° ESE 02:50:21 10° NNE
Cosmos 1741 Rocket 4.3 02:40:19 10° NNW 02:45:29 60° WSW 02:48:30 25° S
ATLAS 3B R/B 2.6 02:39:16 10° SSW 02:45:32 58° ESE 02:52:05 10° NE
Cosmos 2237 Rocket 4.0 02:47:42 13° E 02:47:46 13° E 02:50:17 10° ENE
Celestis-02/Orion 38 4.5 02:49:22 31° SSE 02:51:52 86° WSW 02:57:02 10° NNW
Cosmos 2123 Rocket 4.0 02:48:01 23° S 02:52:06 77° E 02:58:26 10° N
SL-16 R/B 4.1 02:47:58 10° WSW 02:52:55 31° NW 02:57:55 10° N
Cosmos 2360 Rocket 2.7 02:48:15 10° SW 02:53:50 62° WNW 02:59:27 10° NNE
Cosmos 1300 3.1 02:50:55 10° N 02:54:38 49° E 02:55:23 42° ESE
Cosmos 2322 Rocket 3.7 02:50:15 10° WSW 02:55:29 37° WNW 03:00:45 10° N
H-2A R/B 3.3 02:53:12 10° NNE 02:57:18 78° ESE 02:58:45 39° S
Cosmos 1544 Rocket 3.7 02:53:33 10° NNW 02:58:01 70° W 02:59:55 33° S
SL-24 R/B 4.3 02:57:20 10° N 03:02:10 68° E 03:03:58 38° SSE
Cosmos 1455 Rocket 4.3 02:58:46 10° NNW 03:02:52 36° W 03:05:25 20° SW
Cosmos 2233 Rocket 4.2 02:58:02 10° N 03:04:04 56° ENE 03:06:48 32° SE
Cosmos 1346 Rocket 3.8 03:05:41 30° E 03:05:44 30° E 03:09:15 10° NNE
USA 215 3.2 03:01:13 10° NE 03:07:43 66° SE 03:14:11 10° SW
COSMOS 2428 2.8 03:06:54 33° S 03:09:21 58° ESE 03:14:59 10° NNE
Cosmos 1340 3.0 03:10:39 38° SW 03:11:54 62° WNW 03:15:38 10° N
BREEZE-M DEB (TANK) 3.3 03:09:34 10° WNW 03:11:14 29° W 03:11:14 29° W
Cosmos 2322 3.6 03:08:15 22° SSW 03:12:04 88° ESE 03:17:46 10° NNE
Cosmos 405 2.9 03:13:18 10° NNW 03:16:45 70° W 03:17:02 65° SW
Lacrosse 5 rocket 2.0 03:14:21 10° WSW 03:17:55 47° NW 03:21:25 10° NE
Cosmos 2278 Rocket 3.4 03:16:00 10° N 03:21:04 32° NE 03:23:55 21° ESE
Cosmos 2016 Rocket 4.4 03:20:49 10° NNW 03:26:45 55° W 03:29:58 27° SSW
Cosmos 1536 Rocket 4.1 03:26:46 31° SW 03:28:38 54° W 03:33:02 10° N
Cosmos 968 Rocket 3.5 03:26:56 10° NNW 03:32:03 72° ENE 03:33:30 46° SE
Cosmos 1844 Rocket 3.6 03:26:53 10° NW 03:32:06 38° WSW 03:34:17 28° SSW
SPOT 5 4.5 03:30:02 19° SW 03:32:40 28° W 03:36:59 10° NW
Cosmos 1992 Rocket 4.2 03:32:57 46° SE 03:33:56 53° ESE 03:39:02 10° NNE
Meteor 2-5 Rocket 3.9 03:32:04 29° SSW 03:34:53 66° WNW 03:40:28 10° N
Cosmos 1725 Rocket 4.5 03:32:21 10° NNW 03:38:19 52° W 03:41:20 28° SSW
USA 267 4.0 03:34:23 11° ESE 03:40:26 50° NNE 03:46:42 10° NW
GEOS 3 Rocket 3.7 03:39:18 39° SE 03:41:21 74° NE 03:46:42 10° NNW
Terra 3.3 03:41:40 22° SW 03:43:26 29° W 03:47:34 10° NW
Cosmos 2228 2.9 03:46:54 10° N 03:51:19 83° W 03:51:51 68° S
FALCON 9 DEB 4.1 03:51:56 38° NW 03:52:16 40° NNW 03:55:14 10° NE
FALCON 9 DEB 4.1 03:55:36 40° N 03:55:36 40° N 03:58:01 10° NE
Cosmos 1980 3.8 03:56:10 48° SSE 03:57:12 56° ESE 04:02:46 10° NNE
Okean 1-7 Rocket 4.4 03:58:30 36° E 03:58:33 36° E 04:02:38 10° NNE
FALCON 9 DEB 4.4 04:01:02 34° NW 04:01:28 36° NNW 04:04:24 10° NE
Cosmos 2333 Rocket 3.4 03:56:42 11° SW 04:01:53 40° WNW 04:07:17 10° NNE
DNEPR-1 R/B 4.1 03:59:28 10° NW 04:03:30 44° WSW 04:03:30 44° WSW
BREEZE-M DEB (TANK) 3.0 03:52:54 10° WSW 04:03:43 83° SSE 04:06:59 10° ENE
Iridium 2 3.7 04:07:27 72° NW 04:07:27 72° NW 04:11:01 10° N
ATLAS CENTAUR R/B 2.4 04:06:59 10° NW 04:10:56 37° WSW 04:10:56 37° WSW
SL-8 R/B 4.3 04:09:53 10° WNW 04:13:41 40° WSW 04:13:41 40° WSW
Cosmos 2219 Rocket 3.5 04:11:14 12° WSW 04:15:58 36° WNW 04:21:12 10° N
Cosmos 2058 Rocket 3.0 04:12:40 10° N 04:17:07 71° E 04:17:22 69° ESE
Cosmos 1503 Rocket 4.0 04:13:47 10° NNW 04:19:12 82° ENE 04:20:18 57° SSE
Cosmos 389 Rocket 3.7 04:16:01 10° NNW 04:18:37 34° WNW 04:18:37 34° WNW
Meteor 2-10 Rocket 4.2 04:16:35 10° NNW 04:21:20 41° W 04:22:19 37° WSW
Cosmos 2034 Rocket 4.2 04:15:40 10° N 04:21:46 58° E 04:23:38 42° SE
Cosmos 1455 2.4 04:18:39 10° NNW 04:22:07 67° NW 04:22:07 67° NW
SL-16 R/B 3.2 04:25:54 31° ESE 04:26:14 31° ESE 04:31:08 10° NE
Cosmos 1726 Rocket 3.9 04:22:16 10° NNW 04:26:37 54° W 04:26:54 53° WSW
Meteor 1-4 Rocket 4.1 04:24:36 10° NNE 04:27:14 27° ENE 04:27:14 27° ENE
ATLAS CENTAUR R/B 2.9 04:26:30 52° S 04:27:43 65° SE 04:39:02 10° NE
GP-B 4.3 04:25:13 10° NNE 04:29:09 30° E 04:29:21 30° E
Spot 4 4.2 04:28:51 46° WSW 04:29:23 48° W 04:34:02 10° NNW
Cosmos 2237 Rocket 2.1 04:29:30 51° SSW 04:31:00 85° WNW 04:36:40 10° NNE
NOSS 3-1 (C) 4.3 04:31:32 26° ESE 04:31:32 26° ESE 04:36:03 10° NE
Cosmos 1867 3.6 04:28:45 10° NW 04:34:09 60° WSW 04:34:48 56° SSW
ATLAS 3B R/B 4.1 04:30:39 10° WSW 04:36:33 34° NW 04:42:40 10° NNE
Thor Agena Rocket 3.8 04:32:27 10° NNE 04:37:36 53° E 04:38:12 50° SE
ALOS 2 2.7 04:41:22 61° WSW 04:41:25 61° W 04:45:47 10° NNW
Cosmos 1892 Rocket 4.3 04:40:55 40° W 04:41:29 42° WNW 04:45:43 10° N
Tsikada Rocket 4.1 04:43:11 47° SSE 04:44:46 62° E 04:50:52 10° NNE
SJ 16-02 2.9 04:42:54 10° N 04:46:40 27° ENE 04:47:52 24° E
Meteor 1-21 Rocket 4.3 04:46:49 50° SW 04:48:12 69° WNW 04:53:54 10° N
Cosmos 1184 Rocket 4.4 04:49:34 30° NW 04:49:34 30° NW 04:51:53 10° N
USA 215 4.2 04:44:23 10° NE 04:50:33 46° NNW 04:56:42 10° W
SL-4 R/B 2.2 04:52:00 60° NNE 04:52:00 60° NNE 04:55:10 10° NE
Lacrosse 5 rocket 4.3 04:56:09 10° NW 04:57:45 12° NNW 04:59:21 10° N
Meteor 1-11 4.3 04:59:16 52° SE 05:00:20 63° E 05:05:52 10° NNE
Cosmos 2297 4.3 04:57:50 10° NNW 05:03:20 50° ENE 05:05:43 31° ESE
Cosmos 2278 Rocket 2.8 04:59:57 10° NW 05:05:12 40° WSW 05:05:45 39° WSW
Cosmos 1777 Rocket 3.9 05:04:50 10° NNW 05:10:09 87° WSW 05:11:01 63° SSE
Cosmos 1703 4.5 05:11:13 32° WNW 05:11:13 32° WNW 05:14:48 10° N
Cosmos 1626 Rocket 3.8 05:11:52 59° W 05:12:06 60° W 05:16:31 10° N
Cosmos 1441 Rocket 4.5 05:13:00 32° WNW 05:13:00 32° WNW 05:16:27 10° N
PSLV R/B 3.4 05:09:54 10° NNE 05:14:14 81° ESE 05:14:21 80° SE
Cosmos 1892 3.9 05:18:18 35° E 05:18:18 35° E 05:21:36 10° NNE
Cosmos 1602 Rocket 3.5 05:18:27 70° WSW 05:18:39 72° W 05:23:09 10° N
NOSS 2-3 (D) 4.2 05:21:22 41° E 05:21:22 41° E 05:25:10 10° NE
USA 267 3.3 05:21:42 46° S 05:23:22 58° SW 05:29:49 10° NW
Helios 1A 4.4 05:22:47 26° E 05:23:56 30° ENE 05:27:37 10° N
Cosmos 1758 Rocket 3.4 05:25:43 78° SE 05:25:54 81° E 05:30:21 10° N
EO 1 Del DPAF 3.3 05:33:39 10° N 05:37:03 71° NNW 05:37:03 71° NNW
NOSS 2-3 (C) 3.5 05:37:48 68° ESE 05:37:48 68° ESE 05:42:19 10° NE
Aureole 3 3.3 05:34:08 10° NNW 05:37:46 74° W 05:37:46 74° W
Cosmos 1356 4.5 05:39:49 39° ENE 05:39:49 39° ENE 05:42:28 10° NNE
SL-24 R/B 4.5 05:40:29 58° SSW 05:41:24 73° WSW 05:47:12 10° NNW
Cosmos 1943 4.3 05:41:25 28° SE 05:42:44 31° ESE 05:47:38 10° NE
Cosmos 1634 Rocket 4.0 05:37:33 10° NNW 05:43:51 73° W 05:45:48 46° SSW
Cosmos 2279 Rocket 4.0 05:39:06 10° N 05:45:21 74° E 05:47:46 40° SSE
Cosmos-2242 2.9 05:43:43 10° NNW 05:48:08 75° W 05:48:21 72° SW
Cosmos 1943 Rocket 2.0 05:42:58 10° NNW 05:48:30 88° ENE 05:50:14 46° SSE
Cosmos 405 Rocket 3.5 05:48:53 40° E 05:48:53 40° E 05:52:15 10° NNE
Cosmos 1825 2.9 05:52:57 41° E 05:53:01 41° E 05:56:35 10° NNE
YAOGAN 11 4.1 05:54:06 58° SE 05:54:53 76° ENE 05:59:22 10° N
Resurs 1-4 Rocket 3.0 05:54:33 10° NNE 05:59:31 38° E 06:01:20 30° SE
Exosat Rocket 4.0 06:01:44 40° S 06:04:20 74° ESE 06:09:51 10° NNE
CZ-2D R/B 2.8 06:03:44 10° NNE 06:08:44 44° E 06:10:33 32° SSE
SL-16 R/B 3.1 06:07:45 27° WSW 06:10:11 40° WNW 06:15:32 10° NNE
USA 229 DEB 3.5 06:08:35 40° SW 06:11:08 90° W 06:17:58 10° NE
USA 229 3.5 06:08:42 40° SW 06:11:14 89° SE 06:18:04 10° NE
MOZ.5/SAFIR/RUBIN 5/SL-8 3.7 06:13:18 48° SSE 06:14:38 87° ENE 06:19:25 10° NNW
ADEOS II 3.7 06:12:23 10° NE 06:16:41 25° E 06:19:31 16° SE
Cosmos 2221 3.2 06:13:12 10° N 06:17:23 49° ENE 06:18:55 33° SE
Cosmos 468 Rocket 3.9 06:16:01 49° SSW 06:17:26 86° WNW 06:22:40 10° NNE
Nadezhda 4 Rocket 4.1 06:17:10 35° SSE 06:19:53 71° E 06:25:59 10° NNE
Cosmos 1408 3.2 06:20:25 44° WNW 06:20:25 44° WNW 06:23:54 10° N
X-37B 1.1 06:21:11 57° NE 06:21:11 57° NE 06:23:52 10° ENE
ARGOS Delta rocket 4.4 06:15:22 10° NNE 06:20:51 65° E 06:23:00 36° SSE
NOSS 3-1 (C) 3.9 06:18:54 27° WSW 06:21:36 49° NW 06:27:41 10° NNE
Cosmos 2098 Rocket 3.9 06:20:30 34° SSE 06:23:01 64° E 06:27:53 10° NNE
SJ 16-02 2.5 06:21:26 10° NW 06:24:49 27° W 06:24:49 27° W
Cosmos 2369 Rocket 2.1 06:22:31 10° NNW 06:28:17 86° WSW 06:31:22 29° SSE
Cosmos 1869 4.1 06:25:54 10° NNW 06:29:39 36° W 06:29:41 36° W
SL-16 R/B 2.7 06:26:24 22° SSE 06:30:37 75° ENE 06:36:49 10° NNW
NOSS 3-1 (A) 3.3 06:28:32 36° SW 06:30:47 71° NW 06:37:00 10° NNE
SL-4 R/B 4.0 06:28:22 10° WNW 06:31:28 23° NNW 06:34:25 10° NE
Cosmos 1606 3.6 06:30:42 10° N 06:34:23 43° ENE 06:35:59 27° SE
Cosmos 1656 Rocket 3.9 06:29:02 10° NNW 06:34:45 70° ENE 06:39:36 14° SSE
Cosmos 2263 4.2 06:29:46 10° NNW 06:35:29 81° ENE 06:39:38 19° SSE
Cosmos 1437 Rocket 2.6 06:33:04 10° NNW 06:36:59 84° W 06:37:37 60° S
Cosmos 1763 Rocket 3.7 06:35:28 38° SW 06:37:11 58° WNW 06:42:14 10° NNE
CREW DRAGON DEMO-1 DEB 4.0 06:38:11 33° NNE 06:38:11 33° NNE 06:39:56 10° NE
OE (NEXTSAT) 4.1 06:39:19 82° S 06:39:22 83° SSE 06:42:50 10° ENE
Cosmos 1242 Rocket 3.1 06:36:09 10° N 06:39:40 52° ENE 06:40:52 34° SE
Cosmos 2058 2.9 06:40:52 51° SW 06:41:39 64° W 06:45:44 10° N
USA 290 4.0 06:42:13 22° ESE 06:42:45 23° ESE 06:45:22 10° NE
ATLAS 5 CENTAUR R/B 2.5 06:48:01 26° SE 06:49:01 30° ESE 06:52:43 10° NE
Cosmos 1932 4.4 06:43:19 10° NNW 06:49:35 87° ENE 06:55:47 10° SSE
DELTA 2 R/B (1) 3.9 06:48:29 36° SSW 06:50:07 47° SSE 06:55:25 10° E
Aureole 3 Rocket 3.3 06:49:25 10° N 06:53:12 69° E 06:56:17 22° SSE
Cosmos 1437 3.6 06:51:37 10° N 06:54:15 37° ENE 06:55:00 30° ESE
ADEOS Rocket 3.7 06:49:05 10° SSE 06:56:29 68° ENE 07:03:14 10° N
Cosmos 1092 Rocket 4.0 06:54:17 26° S 06:57:53 83° E 07:04:04 10° N
Helios 1A 4.3 06:59:24 23° W 06:59:29 23° W 07:02:52 10° NW
USA 307 3.6 06:58:46 33° S 06:59:51 39° SE 07:03:50 10° ENE
Cosmos 1633 2.4 07:03:06 46° S 07:04:03 87° E 07:07:35 10° N
Landsat 4 4.1 07:00:42 10° NNE 07:04:27 56° ESE 07:06:02 30° SSE
Helios 1B rocket 2.5 07:00:38 10° N 07:04:42 65° WNW 07:06:09 37° SW
IRS-1D 3.9 07:03:55 10° NNE 07:09:01 57° E 07:12:21 21° S
Cosmos 1842 Rocket 4.0 07:04:58 10° NNW 07:09:06 44° W 07:10:27 33° SW
USA 308 3.2 07:13:55 32° SSW 07:15:32 53° SE 07:19:41 10° ENE
Cosmos 1428 Rocket 4.5 07:13:11 22° S 07:17:28 87° W 07:23:48 10° N
NOSS 2-2 (D) 3.0 07:17:58 37° SSW 07:19:08 69° SE 07:22:43 10° NE
Cosmos 841 Rocket 3.9 07:19:57 25° SW 07:22:41 50° WNW 07:27:41 10° N
UNK 4.3 07:21:01 28° SW 07:22:46 39° W 07:27:05 10° NNW
Cosmos 1782 4.4 07:19:55 10° N 07:23:34 33° ENE 07:27:13 10° SE
Cosmos 540 Rocket 4.2 07:22:33 23° WSW 07:25:15 40° WNW 07:30:05 10° N
Cosmos 1898 Rocket 4.5 07:21:10 10° NW 07:25:35 28° W 07:27:17 23° SW
CZ-4C R/B 4.3 07:22:37 10° SE 07:25:53 39° ENE 07:29:08 10° N
Cosmos 921 Rocket 3.4 07:24:19 28° SW 07:26:13 49° WNW 07:30:20 10° N
Cosmos 1943 4.0 07:23:13 20° WSW 07:26:37 40° WNW 07:31:56 10° NNE
Cosmos 1825 4.4 07:27:43 12° W 07:28:42 13° WNW 07:30:35 10° NW
Lacrosse 4 Rocket 2.1 07:25:23 10° NNW 07:29:25 55° ENE 07:33:22 10° SE
Cosmos 1937 Rocket 4.2 07:25:28 10° NW 07:30:18 36° WSW 07:33:00 22° SSW
MINOTAUR 4 R/B 4.2 07:28:56 30° SSW 07:30:21 49° W 07:33:48 10° NNW
Cosmos 1943 Rocket 4.0 07:29:22 10° WNW 07:31:23 12° W 07:31:43 12° W
SL-19 R/B 4.5 07:27:22 10° N 07:32:28 54° WNW 07:35:54 21° SW
NPP 4.4 07:29:12 10° N 07:34:11 40° WNW 07:37:30 20° SW
USA 305 2.8 07:32:36 26° SW 07:34:58 83° SE 07:39:14 10° NE
Resurs 1-4 Rocket 3.3 07:34:39 10° N 07:39:10 29° WNW 07:42:25 16° WSW
Cosmos 1933 3.3 07:37:00 10° N 07:41:06 82° W 07:44:43 13° S
Cosmos 1271 Rocket 4.3 07:41:48 10° N 07:45:15 34° ENE 07:48:41 10° SE
IRIDIUM 104 4.3 07:41:45 10° N 07:47:00 87° W 07:52:13 10° S
Cosmos 2150 Rocket 4.2 07:42:21 10° NNW 07:47:33 73° ENE 07:52:47 10° SSE
Cosmos 2151 3.4 07:45:23 21° SW 07:47:52 46° WNW 07:51:56 10° N
CZ-2D R/B 3.5 07:44:22 10° N 07:48:30 25° WNW 07:51:52 13° WSW
Cosmos 1809 Rocket 4.5 07:43:31 13° S 07:49:03 87° W 07:55:17 10° N
Cosmos 2221 4.4 07:52:16 10° NW 07:54:28 14° W 07:55:44 12° WSW
Meteor 1-29 4.3 07:52:28 10° NNW 07:55:22 26° WNW 07:57:08 17° WSW
Cosmos 1553 Rocket 4.0 07:49:06 10° N 07:55:25 79° W 08:01:36 10° S
IRIDIUM 114 4.3 07:50:56 10° N 07:56:09 72° W 08:01:19 10° S
ADEOS II 2.7 07:51:34 10° N 07:56:31 42° WNW 08:00:27 15° SW
USA 306 3.0 07:53:56 17° WSW 07:57:08 70° NW 08:01:23 10° NE
X-37B 1.2 07:54:23 10° WNW 07:57:31 57° N 08:00:39 10° E
NOSS 2-2 (E) 4.2 07:56:16 15° WSW 07:58:39 33° NW 08:02:06 10° NNE
ERBS 3.8 07:56:45 13° S 07:58:57 25° SE 08:01:40 10° ENE
S3M 4.2 07:53:40 10° N 07:59:50 77° E 08:06:03 10° SSE
CZ-2C R/B 4.2 07:56:29 10° NE 08:00:49 29° E 08:05:00 10° SSE
Cosmos 1125 Rocket 3.6 07:58:29 10° NNW 08:03:46 82° ENE 08:09:02 10° SSE
IRIDIUM 103 4.5 08:00:09 10° N 08:05:17 59° W 08:10:23 10° SSW
SeaSat 1 2.5 08:00:54 10° NNE 08:05:50 74° WNW 08:10:13 13° SW
ARIANE 5 R/B 2.7 08:03:04 10° NNE 08:08:04 72° ESE 08:13:03 10° S
Cosmos 2369 Rocket 4.0 08:09:31 10° WNW 08:11:21 12° W 08:13:05 10° WSW
NOSS 2-2 (C) 4.2 08:08:55 12° WSW 08:11:38 32° NW 08:15:01 10° NNE
SL-4 R/B 4.2 08:09:03 10° NW 08:11:52 21° N 08:14:36 10° ENE
SL-08 R/B 3.5 08:08:15 10° SSE 08:12:51 75° ENE 08:17:35 10° N
Cosmos 1328 Rocket 3.6 08:09:05 10° N 08:13:28 87° E 08:17:50 10° S
SL-16 R/B 4.0 08:11:30 12° SW 08:14:48 18° W 08:18:50 10° NW
Cosmos 1862 3.8 08:11:20 10° S 08:15:18 61° E 08:19:19 10° NNE
IDEFIX/ARIANE 42P 2.9 08:10:51 10° N 08:15:57 52° WNW 08:20:56 10° SW
USA 290 4.2 08:15:00 11° WSW 08:17:08 18° WNW 08:19:25 10° NNW
Lacrosse 5 rocket 4.1 08:16:01 10° NNW 08:18:42 19° NNE 08:21:25 10° ENE
Meteor 2-21 Rocket 4.5 08:14:44 10° SSW 08:20:50 77° W 08:27:03 10° N
IRS-1C 4.2 08:16:09 10° N 08:21:28 70° WNW 08:26:45 10° SSW
USA 281 3.4 08:15:11 10° S 08:21:35 54° WSW 08:28:02 10° NNW
CZ-4B R/B 3.6 08:17:28 10° NNE 08:22:47 87° WNW 08:28:00 10° SSW
CZ-4C R/B 2.7 08:20:13 10° S 08:24:43 47° ESE 08:30:04 10° NE
GPS 2-04 Rocket1 3.7 08:23:33 11° SW 08:26:39 27° S 08:29:52 10° ESE
FALCON 9 DEB 3.0 08:25:33 10° WNW 08:28:57 75° SW 08:32:19 10° SE
ATLAS 5 CENTAUR R/B 2.8 08:30:03 10° WSW 08:33:33 28° NW 08:37:27 10° NNE
DELTA 2 R/B (1) 3.7 08:30:46 10° W 08:36:15 64° S 08:41:45 10° E
USA 307 3.9 08:35:49 10° W 08:39:50 39° NNW 08:43:51 10° NE
Cosmos 1766 Rocket 4.4 08:35:48 10° SW 08:39:53 35° WNW 08:44:01 10° N
Spot 4 Rocket 4.1 08:35:27 10° NNE 08:40:37 86° ESE 08:45:46 10° SSW
Cosmos 1515 Rocket 3.6 08:36:46 10° N 08:41:12 85° W 08:45:38 10° S
FALCON 9 DEB 4.4 08:38:23 10° NW 08:41:20 41° NNE 08:44:16 10° ESE
Okean 3 Rocket 4.4 08:37:22 10° SW 08:41:23 35° WNW 08:45:25 10° N
Cosmos 883 Rocket 4.5 08:35:19 10° N 08:41:28 80° W 08:47:34 10° S
Cosmos 1833 Rocket 3.7 08:36:12 10° S 08:41:34 46° ESE 08:46:56 10° NE
ADEOS Rocket 4.5 08:36:31 10° SW 08:42:18 24° W 08:47:45 10° NW
Cosmos 2266 Rocket 4.1 08:36:14 10° SSW 08:42:19 62° W 08:48:20 10° N
Cosmos 1408 Rocket 3.7 08:40:45 10° SSW 08:45:08 62° W 08:49:35 10° N
Cosmos 1151 Rocket 3.9 08:41:55 10° NNW 08:45:41 31° W 08:49:24 10° SSW
